Regional Weather Roundup
Issued by NWS

Home | Current Version | Previous Version | Graphics & Text | Print | Product List | Glossary On
Versions: 1 2 3 4 5 6 7 8 9 10 11 12 13 14 15 16 17 18 19 20 21 22 23 24 25 26 27 28 29 30 31 32 33 34 35 36 37 38 39 40 41 42 43 44 45 46 47 48 49 50
000
ASUS43 KLMK 310902
RWRKY
KENTUCKY REGIONAL WEATHER ROUNDUP
NATIONAL WEATHER SERVICE LOUISVILLE KY
400 AM EST SAT JAN 31 2015

NOTE "FAIR" INDICATES FEW OR NO CLOUDS BELOW 12,000 FEET
WITH NO SIGNIFICANT WEATHER AND/OR OBSTRUCTIONS TO VISIBILITY.

KYZ001>023-026-027-061>063-070>075-311000-
WESTERN AND SOUTH CENTRAL KENTUCKY

CITY           SKY/WX    TMP DP  RH WIND       PRES   REMARKS
PADUCAH        MOCLDY    26  22  84 CALM      30.39F
HENDERSON      MOCLDY    21  18  86 CALM      30.40F
OWENSBORO      MOCLDY    24  21  88 CALM      30.41F
HOPKINSVILLE   MOCLDY    26  19  77 CALM      30.39F
BOWLING GREEN  CLEAR     23  19  85 CALM      30.40F
GLASGOW        NOT AVBL
$$

KYZ024-025-028>034-038-045-046-053-311000-
NORTH CENTRAL KENTUCKY

CITY           SKY/WX    TMP DP  RH WIND       PRES   REMARKS
LOUISVILLE/SDF CLEAR     25  16  68 CALM      30.41F
LOUISVILLE/LOU CLEAR     22  15  75 CALM      30.41F
FORT KNOX      CLEAR     21  16  79 CALM      30.37F
$$

KYZ035>037-039>044-047>052-055>060-089>105-311000-
NORTHEAST KENTUCKY

CITY           SKY/WX    TMP DP  RH WIND       PRES   REMARKS
LEXINGTON      CLEAR     19  13  77 SE3       30.39F
COVINGTON      CLEAR     18  13  80 S5        30.39F WCI  11
FRANKFORT      CLEAR     18  12  77 CALM      30.39F
$$

KYZ054-064>069-076>088-106>120-311000-
SOUTHEAST KENTUCKY

CITY           SKY/WX    TMP DP  RH WIND       PRES   REMARKS
JACKSON        CLEAR     21  11  65 CALM      30.37F
LONDON         CLEAR     21  15  78 CALM      30.38F
SOMERSET       NOT AVBL
MIDDLESBORO    NOT AVBL
MONTICELLO     SUNNY     15  12  88 CALM      30.42F
$$




USA.gov is the U.S. government's official web portal to all federal, state and local government web resources and services.